Showing default

RROCI-2, 59106

Orbit data source: Space-Track

RROCI-2, 59106 is an American payload satellite in SSO that was launched on Mon, 04 Mar 2024 UTC via an FALCON 9 launch vehicle from the Air Force Western Test Range (AFWTR). Payload-class satellites include a variety of spacecraft equipped with specific instruments for various scientific and technological missions. These include communications satellites like Starlink; space stations such as the ISS; scientific satellites like the Hubble; Earth observation satellites from companies like Planet Labs, Umbra, and HawkEye 360; GPS; miniature CubeSats for education and research; and military/defense satellites.

Loading next visibility...
Identifier
59106, 2024-043J
Orbit
SSO
Country
Flag of USUS
Related business
Manufacturer
Orion Space Sol.
Mission
Operational Commercial Weather
Bus & Motor
CUBESAT 12U, Unknown motor
Mass
19 kg wet, 19 kg dry
Launch date (UTC)
2024-03-04 (2 years ago)
Launch vehicle
FALCON 9
Launch site
Air Force Western Test Range (AFWTR)
Object type
Payload
Rocket body
Debris
Shape & HBR
Box + 2 Pan, 0.5 m
Radar Cross Section
0.126 m², Medium (>0.1 m² and < 1m²)

Expand to show TLE details & history
Last TLE update: 11 hours ago

TLE from 11 hours ago
0 RROCI-2
1 59106U 24043J   25289.09768272  .00005497  00000-0  46839-3 0  9999
2 59106  97.8158  55.6996 0009332  94.1580 266.0709 14.98144278 88199
Epoch: 2025-10-16T02:20Z
TLE epoch observation values (Epoch: 2025-10-16T02:20:39.787Z)
Latitude
0.00003°
Longitude
-4.32847°
Altitude
576.13 km
Speed
7.572 km/s
True Right ascension
03h 42m 47s
True Declination
0° 00' 00"
Sunlit
Object was in full shadow at epoch
Visualization orbit readout
Latitude
Unknown
Longitude
Unknown
Altitude
Unknown
Speed
Unknown
Apparent Right ascension
Unknown
Apparent Declination
Unknown
Sunlit
N/A
Visualization observer readout
Local Sidereal Time
08:27:44
Azimuth
Unknown
Elevation
Unknown
Doppler factor
Unknown
Orbital elements
Apogee altitude
576.127 km
Perigee altitude
563.159 km
Semi-major axis
6,947.78 km
Eccentricity
0.00093
Inclination
97.8158°
RAAN
55.6996°
Arg. of periapsis
94.158°
True anomaly
265.96422°
Mean anomaly
266.0709°
Eccentric anomaly
266.01756°
Mean motion
3.74778 °/min
Orbital period
96.06 mins
BSTAR
0.00046839
Loading maneuver chart data...
Computing Atmospheric mass density...
Loading historical data...
Loading historical data...
Loading historical data...
Loading historical data...
Loading historical data...
Loading historical data...
Loading historical data...

Documentation

Showing up to 5 results
|